Year,Month,Day,Hour,Minute,Value (Times are PST for temperature in C)
2019,04,02,00,00,11.00
2019,04,02,00,01,11.00
2019,04,02,00,02,11.00
2019,04,02,00,03,11.00
2019,04,02,00,04,11.00
2019,04,02,00,05,11.10
2019,04,02,00,06,11.10
2019,04,02,00,07,11.10
2019,04,02,00,08,11.10
2019,04,02,00,09,11.10
2019,04,02,00,10,11.10
2019,04,02,00,11,11.10
2019,04,02,00,12,11.00
2019,04,02,00,13,11.00
2019,04,02,00,14,11.00
2019,04,02,00,15,11.00
2019,04,02,00,16,10.90
2019,04,02,00,17,10.90
2019,04,02,00,18,10.90
2019,04,02,00,19,10.90
2019,04,02,00,20,10.80
2019,04,02,00,21,10.80
2019,04,02,00,22,10.80
2019,04,02,00,23,10.70
2019,04,02,00,24,10.70
2019,04,02,00,25,10.70
2019,04,02,00,26,10.60
2019,04,02,00,27,10.50
2019,04,02,00,28,10.50
2019,04,02,00,29,10.40
2019,04,02,00,30,10.30
2019,04,02,00,31,10.30
2019,04,02,00,32,10.20
2019,04,02,00,33,10.20
2019,04,02,00,34,10.10
2019,04,02,00,35,10.00
2019,04,02,00,36,9.90
2019,04,02,00,37,9.90
2019,04,02,00,38,9.80
2019,04,02,00,39,9.80
2019,04,02,00,40,9.80
2019,04,02,00,41,9.90
2019,04,02,00,42,9.90
2019,04,02,00,43,9.90
2019,04,02,00,44,9.90
2019,04,02,00,45,9.90
2019,04,02,00,46,9.90
2019,04,02,00,47,9.90
2019,04,02,00,48,9.90
2019,04,02,00,49,9.90
2019,04,02,00,50,9.90
2019,04,02,00,51,10.00
2019,04,02,00,52,10.00
2019,04,02,00,53,10.00
2019,04,02,00,54,10.10
2019,04,02,00,55,10.10
2019,04,02,00,56,10.10
2019,04,02,00,57,10.10
2019,04,02,00,58,10.10
2019,04,02,00,59,10.10
2019,04,02,01,00,10.00
2019,04,02,01,01,10.00
2019,04,02,01,02,9.90
2019,04,02,01,03,9.90
2019,04,02,01,04,9.80
2019,04,02,01,05,9.80
2019,04,02,01,06,9.80
2019,04,02,01,07,9.70
2019,04,02,01,08,9.70
2019,04,02,01,09,9.60
2019,04,02,01,10,9.50
2019,04,02,01,11,9.50
2019,04,02,01,12,9.40
2019,04,02,01,13,9.40
2019,04,02,01,14,9.30
2019,04,02,01,15,9.30
2019,04,02,01,16,9.30
2019,04,02,01,17,9.20
2019,04,02,01,18,9.20
2019,04,02,01,19,9.20
2019,04,02,01,20,9.20
2019,04,02,01,21,9.10
2019,04,02,01,22,9.10
2019,04,02,01,23,9.10
2019,04,02,01,24,9.20
2019,04,02,01,25,9.20
2019,04,02,01,26,9.20
2019,04,02,01,27,9.20
2019,04,02,01,28,9.20
2019,04,02,01,29,9.30
2019,04,02,01,30,9.30
2019,04,02,01,31,9.30
2019,04,02,01,32,9.30
2019,04,02,01,33,9.40
2019,04,02,01,34,9.40
2019,04,02,01,35,9.40
2019,04,02,01,36,9.50
2019,04,02,01,37,9.50
2019,04,02,01,38,9.60
2019,04,02,01,39,9.70
2019,04,02,01,40,9.70
2019,04,02,01,41,9.80
2019,04,02,01,42,9.80
2019,04,02,01,43,9.90
2019,04,02,01,44,10.00
2019,04,02,01,45,10.10
2019,04,02,01,46,10.20
2019,04,02,01,47,10.30
2019,04,02,01,48,10.30
2019,04,02,01,49,10.40
2019,04,02,01,50,10.40
2019,04,02,01,51,10.50
2019,04,02,01,52,10.50
2019,04,02,01,53,10.60
2019,04,02,01,54,10.60
2019,04,02,01,55,10.60
2019,04,02,01,56,10.70
2019,04,02,01,57,10.70
2019,04,02,01,58,10.80
2019,04,02,01,59,10.80
2019,04,02,02,00,10.80
2019,04,02,02,01,10.90
2019,04,02,02,02,10.90
2019,04,02,02,03,10.90
2019,04,02,02,04,10.90
2019,04,02,02,05,10.90
2019,04,02,02,06,10.90
2019,04,02,02,07,10.90
2019,04,02,02,08,10.90
2019,04,02,02,09,10.90
2019,04,02,02,10,10.90
2019,04,02,02,11,10.90
2019,04,02,02,12,10.90
2019,04,02,02,13,10.90
2019,04,02,02,14,10.90
2019,04,02,02,15,10.90
2019,04,02,02,16,10.90
2019,04,02,02,17,10.90
2019,04,02,02,18,10.90
2019,04,02,02,19,10.90
2019,04,02,02,20,10.90
2019,04,02,02,21,10.90
2019,04,02,02,22,11.00
2019,04,02,02,23,11.00
2019,04,02,02,24,11.00
2019,04,02,02,25,11.10
2019,04,02,02,26,11.10
2019,04,02,02,27,11.10
2019,04,02,02,28,11.10
2019,04,02,02,29,11.10
2019,04,02,02,30,11.10
2019,04,02,02,31,11.10
2019,04,02,02,32,11.10
2019,04,02,02,33,11.10
2019,04,02,02,34,11.10
2019,04,02,02,35,11.10
2019,04,02,02,36,11.10
2019,04,02,02,37,11.10
2019,04,02,02,38,11.10
2019,04,02,02,39,11.10
2019,04,02,02,40,11.10
2019,04,02,02,41,11.10
2019,04,02,02,42,11.10
2019,04,02,02,43,11.10
2019,04,02,02,44,11.10
2019,04,02,02,45,11.10
2019,04,02,02,46,11.10
2019,04,02,02,47,11.00
2019,04,02,02,48,11.00
2019,04,02,02,49,11.00
2019,04,02,02,50,11.00
2019,04,02,02,51,11.00
2019,04,02,02,52,10.90
2019,04,02,02,53,10.90
2019,04,02,02,54,10.90
2019,04,02,02,55,10.90
2019,04,02,02,56,10.90
2019,04,02,02,57,10.80
2019,04,02,02,58,10.80
2019,04,02,02,59,10.80
2019,04,02,03,00,10.80
2019,04,02,03,01,10.80
2019,04,02,03,02,10.80
2019,04,02,03,03,10.80
2019,04,02,03,04,10.80
2019,04,02,03,05,10.80
2019,04,02,03,06,10.80
2019,04,02,03,07,10.80
2019,04,02,03,08,10.80
2019,04,02,03,09,10.80
2019,04,02,03,10,10.80
2019,04,02,03,11,10.80
2019,04,02,03,12,10.80
2019,04,02,03,13,10.70
2019,04,02,03,14,10.70
2019,04,02,03,15,10.70
2019,04,02,03,16,10.70
2019,04,02,03,17,10.60
2019,04,02,03,18,10.60
2019,04,02,03,19,10.60
2019,04,02,03,20,10.50
2019,04,02,03,21,10.50
2019,04,02,03,22,10.40
2019,04,02,03,23,10.40
2019,04,02,03,24,10.50
2019,04,02,03,25,10.50
2019,04,02,03,26,10.60
2019,04,02,03,27,10.70
2019,04,02,03,28,10.70
2019,04,02,03,29,10.70
2019,04,02,03,30,10.80
2019,04,02,03,31,10.80
2019,04,02,03,32,10.80
2019,04,02,03,33,10.90
2019,04,02,03,34,10.90
2019,04,02,03,35,10.90
2019,04,02,03,36,10.90
2019,04,02,03,37,10.90
2019,04,02,03,38,11.00
2019,04,02,03,39,11.00
2019,04,02,03,40,11.00
2019,04,02,03,41,11.10
2019,04,02,03,42,11.10
2019,04,02,03,43,11.10
2019,04,02,03,44,11.10
2019,04,02,03,45,11.10
2019,04,02,03,46,11.10
2019,04,02,03,47,11.10
2019,04,02,03,48,11.10
2019,04,02,03,49,11.10
2019,04,02,03,50,11.10
2019,04,02,03,51,11.10
2019,04,02,03,52,11.10
2019,04,02,03,53,11.10
2019,04,02,03,54,11.10
2019,04,02,03,55,11.10
2019,04,02,03,56,11.10
2019,04,02,03,57,11.20
2019,04,02,03,58,11.20
2019,04,02,03,59,11.20
2019,04,02,04,00,11.20
2019,04,02,04,01,11.20
2019,04,02,04,02,11.20
2019,04,02,04,03,11.30
2019,04,02,04,04,11.30
2019,04,02,04,05,11.30
2019,04,02,04,06,11.30
2019,04,02,04,07,11.30
2019,04,02,04,08,11.30
2019,04,02,04,09,11.30
2019,04,02,04,10,11.40
2019,04,02,04,11,11.40
2019,04,02,04,12,11.40
2019,04,02,04,13,11.40
2019,04,02,04,14,11.40
2019,04,02,04,15,11.40
2019,04,02,04,16,11.40
2019,04,02,04,17,11.40
2019,04,02,04,18,11.40
2019,04,02,04,19,11.40
2019,04,02,04,20,11.40
2019,04,02,04,21,11.40
2019,04,02,04,22,11.40
2019,04,02,04,23,11.40
2019,04,02,04,24,11.50
2019,04,02,04,25,11.50
2019,04,02,04,26,11.50
2019,04,02,04,27,11.50
2019,04,02,04,28,11.50
2019,04,02,04,29,11.60
2019,04,02,04,30,11.50
2019,04,02,04,31,11.60
2019,04,02,04,32,11.60
2019,04,02,04,33,11.60
2019,04,02,04,34,11.60
2019,04,02,04,35,11.70
2019,04,02,04,36,11.70
2019,04,02,04,37,11.80
2019,04,02,04,38,11.80
2019,04,02,04,39,11.80
2019,04,02,04,40,11.80
2019,04,02,04,41,11.80
2019,04,02,04,42,11.90
2019,04,02,04,43,11.90
2019,04,02,04,44,12.00
2019,04,02,04,45,12.00
2019,04,02,04,46,12.10
2019,04,02,04,47,12.10
2019,04,02,04,48,12.10
2019,04,02,04,49,12.10
2019,04,02,04,50,12.10
2019,04,02,04,51,12.10
2019,04,02,04,52,12.10
2019,04,02,04,53,12.10
2019,04,02,04,54,12.10
2019,04,02,04,55,12.10
2019,04,02,04,56,12.10
2019,04,02,04,57,12.10
2019,04,02,04,58,12.10
2019,04,02,04,59,12.10
2019,04,02,05,00,12.10
2019,04,02,05,01,12.10
2019,04,02,05,02,12.10
2019,04,02,05,03,12.10
2019,04,02,05,04,12.10
2019,04,02,05,05,12.10
2019,04,02,05,06,12.10
2019,04,02,05,07,12.10
2019,04,02,05,08,12.10
2019,04,02,05,09,12.10
2019,04,02,07,23,11.90
2019,04,02,07,24,11.90
2019,04,02,07,25,11.90
2019,04,02,07,26,11.90
2019,04,02,07,27,11.90
2019,04,02,07,28,11.90
2019,04,02,07,29,11.90
2019,04,02,07,30,11.90
2019,04,02,07,31,11.90
2019,04,02,07,32,11.90
2019,04,02,07,33,11.90
2019,04,02,07,34,11.90
2019,04,02,07,35,11.90
2019,04,02,07,36,11.90
2019,04,02,07,37,11.90
2019,04,02,07,38,11.90
2019,04,02,07,39,11.90
2019,04,02,07,40,11.90
2019,04,02,07,41,11.90
2019,04,02,07,42,11.90
2019,04,02,07,43,11.90
2019,04,02,07,44,12.00
2019,04,02,07,45,12.00
2019,04,02,07,46,12.00
2019,04,02,07,47,12.00
2019,04,02,07,48,12.10
2019,04,02,07,49,12.10
2019,04,02,07,50,12.20
2019,04,02,07,51,12.20
2019,04,02,07,52,12.20
2019,04,02,07,53,12.30
2019,04,02,07,54,12.30
2019,04,02,07,55,12.30
2019,04,02,07,56,12.40
2019,04,02,07,57,12.40
2019,04,02,07,58,12.50
2019,04,02,07,59,12.50
2019,04,02,08,00,12.60
2019,04,02,08,01,12.60
2019,04,02,08,02,12.60
2019,04,02,08,03,12.70
2019,04,02,08,04,12.70
2019,04,02,08,05,12.70
2019,04,02,08,06,12.80
2019,04,02,08,07,12.80
2019,04,02,08,08,12.90
2019,04,02,08,09,13.00
2019,04,02,08,10,13.00
2019,04,02,08,11,13.10
2019,04,02,08,12,13.10
2019,04,02,08,13,13.10
2019,04,02,08,14,13.20
2019,04,02,08,15,13.20
2019,04,02,08,16,13.20
2019,04,02,08,17,13.20
2019,04,02,08,18,13.30
2019,04,02,08,19,13.30
2019,04,02,08,20,13.30
2019,04,02,08,21,13.30
2019,04,02,08,22,13.40
2019,04,02,08,23,13.40
2019,04,02,08,24,13.40
2019,04,02,08,25,13.40
2019,04,02,08,26,13.50
2019,04,02,08,27,13.50
2019,04,02,08,28,13.60
2019,04,02,08,29,13.60
2019,04,02,08,30,13.60
2019,04,02,08,31,13.70
2019,04,02,08,32,13.70
2019,04,02,08,33,13.70
2019,04,02,08,34,13.70
2019,04,02,08,35,13.70
2019,04,02,08,36,13.70
2019,04,02,08,37,13.80
2019,04,02,08,38,13.80
2019,04,02,08,39,13.80
2019,04,02,08,40,13.80
2019,04,02,08,41,13.90
2019,04,02,08,42,13.90
2019,04,02,08,43,13.90
2019,04,02,08,44,13.90
2019,04,02,08,45,14.00
2019,04,02,08,46,14.00
2019,04,02,08,47,14.00
2019,04,02,08,48,14.10
2019,04,02,08,49,14.10
2019,04,02,08,50,14.10
2019,04,02,08,51,14.10
2019,04,02,08,52,14.10
2019,04,02,08,53,14.10
2019,04,02,08,54,14.10
2019,04,02,08,55,14.10
2019,04,02,08,56,14.10
2019,04,02,08,57,14.10
2019,04,02,08,58,14.10
2019,04,02,08,59,14.00
2019,04,02,09,00,14.00
2019,04,02,09,01,14.00
2019,04,02,09,02,14.00
2019,04,02,09,03,13.90
2019,04,02,09,04,14.00
2019,04,02,09,05,14.00
2019,04,02,09,06,14.00
2019,04,02,09,07,14.00
2019,04,02,09,08,14.00
2019,04,02,09,09,14.00
2019,04,02,09,10,14.00
2019,04,02,09,11,14.10
2019,04,02,09,12,14.10
2019,04,02,09,13,14.10
2019,04,02,09,14,14.10
2019,04,02,09,15,14.10
2019,04,02,09,16,14.20
2019,04,02,09,17,14.20
2019,04,02,09,18,14.20
2019,04,02,09,19,14.20
2019,04,02,09,20,14.30
2019,04,02,09,21,14.30
2019,04,02,09,22,14.30
2019,04,02,09,23,14.30
2019,04,02,09,24,14.30
2019,04,02,09,25,14.30
2019,04,02,09,26,14.40
2019,04,02,09,27,14.40
2019,04,02,09,28,14.40
2019,04,02,09,29,14.50
2019,04,02,09,30,14.50
2019,04,02,09,31,14.50
2019,04,02,09,32,14.50
2019,04,02,09,33,14.50
2019,04,02,09,34,14.50
2019,04,02,09,35,14.50
2019,04,02,09,36,14.60
2019,04,02,09,37,14.60
2019,04,02,09,38,14.70
2019,04,02,09,39,14.70
2019,04,02,09,40,14.70
2019,04,02,09,41,14.70
2019,04,02,09,42,14.70
2019,04,02,09,43,14.80
2019,04,02,09,44,14.80
2019,04,02,09,45,14.80
2019,04,02,09,46,14.90
2019,04,02,09,47,14.90
2019,04,02,09,48,14.80
2019,04,02,09,49,14.80
2019,04,02,09,50,14.80
2019,04,02,09,51,14.80
2019,04,02,09,52,14.80
2019,04,02,09,53,14.80
2019,04,02,09,54,14.80
2019,04,02,09,55,14.80
2019,04,02,09,56,14.80
2019,04,02,09,57,14.80
2019,04,02,09,58,14.80
2019,04,02,09,59,14.90
2019,04,02,10,00,14.80
2019,04,02,10,01,14.80
2019,04,02,10,02,14.80
2019,04,02,10,03,14.80
2019,04,02,10,04,14.80
2019,04,02,10,05,14.90
2019,04,02,10,06,14.90
2019,04,02,10,07,15.00
2019,04,02,10,08,15.00
2019,04,02,10,09,14.90
2019,04,02,10,10,14.90
2019,04,02,10,11,14.90
2019,04,02,10,12,14.90
2019,04,02,10,13,14.90
2019,04,02,10,14,14.90
2019,04,02,10,15,15.00
2019,04,02,10,16,15.10
2019,04,02,10,17,15.10
2019,04,02,10,18,15.20
2019,04,02,10,19,15.20
2019,04,02,10,20,15.20
2019,04,02,10,21,15.20
2019,04,02,10,22,15.20
2019,04,02,10,23,15.10
2019,04,02,10,24,15.10
2019,04,02,10,25,15.20
2019,04,02,10,26,15.20
2019,04,02,10,27,15.20
2019,04,02,10,28,15.20
2019,04,02,10,29,15.30
2019,04,02,10,30,15.30
2019,04,02,10,31,15.40
2019,04,02,10,32,15.40
2019,04,02,10,33,15.40
2019,04,02,10,34,15.40
2019,04,02,10,35,15.30
2019,04,02,10,36,15.30
2019,04,02,10,37,15.30
2019,04,02,10,38,15.30
2019,04,02,10,39,15.30
2019,04,02,10,40,15.30
2019,04,02,10,41,15.30
2019,04,02,10,42,15.30
2019,04,02,10,43,15.30
2019,04,02,10,44,15.30
2019,04,02,10,45,15.30
2019,04,02,10,46,15.40
2019,04,02,10,47,15.40
2019,04,02,10,48,15.40
2019,04,02,10,49,15.30
2019,04,02,10,50,15.30
2019,04,02,10,51,15.30
2019,04,02,10,52,15.40
2019,04,02,10,53,15.40
2019,04,02,10,54,15.50
2019,04,02,10,55,15.60
2019,04,02,10,56,15.60
2019,04,02,10,57,15.60
2019,04,02,10,58,15.60
2019,04,02,10,59,15.60
2019,04,02,11,00,15.50
2019,04,02,11,01,15.40
2019,04,02,11,02,15.40
2019,04,02,11,03,15.30
2019,04,02,11,04,15.30
2019,04,02,11,05,15.30
2019,04,02,11,06,15.30
2019,04,02,11,07,15.30
2019,04,02,11,08,15.40
2019,04,02,11,09,15.40
2019,04,02,11,10,15.40
2019,04,02,11,11,15.40
2019,04,02,11,12,15.40
2019,04,02,11,13,15.50
2019,04,02,11,14,15.50
2019,04,02,11,15,15.50
2019,04,02,11,16,15.60
2019,04,02,11,17,15.60
2019,04,02,11,18,15.60
2019,04,02,11,19,15.60
2019,04,02,11,20,15.60
2019,04,02,11,21,15.60
2019,04,02,11,22,15.70
2019,04,02,11,23,15.70
2019,04,02,11,24,15.70
2019,04,02,11,25,15.70
2019,04,02,11,26,15.80
2019,04,02,11,27,15.80
2019,04,02,11,28,15.80
2019,04,02,11,29,15.80
2019,04,02,11,30,15.80
2019,04,02,11,31,15.80
2019,04,02,11,32,15.80
2019,04,02,11,33,15.90
2019,04,02,11,34,15.90
2019,04,02,11,35,15.90
2019,04,02,11,36,15.80
2019,04,02,11,37,15.90
2019,04,02,11,38,15.90
2019,04,02,11,39,15.90
2019,04,02,11,40,16.00
2019,04,02,11,41,15.90
2019,04,02,11,42,15.90
2019,04,02,11,43,15.90
2019,04,02,11,44,15.80
2019,04,02,11,45,15.90
2019,04,02,11,46,16.00
2019,04,02,11,47,16.10
2019,04,02,11,48,16.20
2019,04,02,11,49,16.20
2019,04,02,11,50,16.30
2019,04,02,11,51,16.30
2019,04,02,11,52,16.30
2019,04,02,11,53,16.30
2019,04,02,11,54,16.20
2019,04,02,11,55,16.30
2019,04,02,11,56,16.30
2019,04,02,11,57,16.30
2019,04,02,11,58,16.30
2019,04,02,11,59,16.30
2019,04,02,12,00,16.40
2019,04,02,12,01,16.40
2019,04,02,12,02,16.40
2019,04,02,12,03,16.50
2019,04,02,12,04,16.50
2019,04,02,12,05,16.50
2019,04,02,12,06,16.50
2019,04,02,12,07,16.60
2019,04,02,12,08,16.70
2019,04,02,12,09,16.80
2019,04,02,12,10,16.90
2019,04,02,12,11,16.90
2019,04,02,12,12,16.80
2019,04,02,12,13,16.80
2019,04,02,12,14,16.80
2019,04,02,12,15,16.80
2019,04,02,12,16,16.70
2019,04,02,12,17,16.70
2019,04,02,12,18,16.70
2019,04,02,12,19,16.70
2019,04,02,12,20,16.80
2019,04,02,12,21,16.80
2019,04,02,12,22,16.80
2019,04,02,12,23,16.90
2019,04,02,12,24,16.90
2019,04,02,12,25,17.00
2019,04,02,12,26,17.10
2019,04,02,12,27,17.20
2019,04,02,12,28,17.20
2019,04,02,12,29,17.30
2019,04,02,12,30,17.30
2019,04,02,12,31,17.30
2019,04,02,12,32,17.40
2019,04,02,12,33,17.40
2019,04,02,12,34,17.40
2019,04,02,12,35,17.40
2019,04,02,12,36,17.30
2019,04,02,12,37,17.30
2019,04,02,12,38,17.20
2019,04,02,12,39,17.10
2019,04,02,12,40,17.00
2019,04,02,12,41,17.00
2019,04,02,12,42,16.90
2019,04,02,12,43,17.00
2019,04,02,12,44,17.00
2019,04,02,12,45,17.00
2019,04,02,12,46,17.10
2019,04,02,12,47,17.10
2019,04,02,12,48,17.10
2019,04,02,12,49,17.10
2019,04,02,12,50,17.10
2019,04,02,12,51,17.10
2019,04,02,12,52,17.10
2019,04,02,12,53,17.10
2019,04,02,12,54,17.20
2019,04,02,12,55,17.30
2019,04,02,12,56,17.30
2019,04,02,12,57,17.40
2019,04,02,12,58,17.50
2019,04,02,12,59,17.50
2019,04,02,13,00,17.50
2019,04,02,13,01,17.50
2019,04,02,13,02,17.50
2019,04,02,13,03,17.50
2019,04,02,13,04,17.50
2019,04,02,13,05,17.50
2019,04,02,13,06,17.60
2019,04,02,13,07,17.60
2019,04,02,13,08,17.60
2019,04,02,13,09,17.60
2019,04,02,13,10,17.60
2019,04,02,13,11,17.50
2019,04,02,13,12,17.50
2019,04,02,13,13,17.50
2019,04,02,13,14,17.50
2019,04,02,13,15,17.50
2019,04,02,13,16,17.50
2019,04,02,13,17,17.60
2019,04,02,13,18,17.60
2019,04,02,13,19,17.70
2019,04,02,13,20,17.80
2019,04,02,13,21,17.90
2019,04,02,13,22,18.00
2019,04,02,13,23,18.10
2019,04,02,13,24,18.10
2019,04,02,13,25,18.00
2019,04,02,13,26,17.90
2019,04,02,13,27,17.80
2019,04,02,13,28,17.70
2019,04,02,13,29,17.70
2019,04,02,13,30,17.70
2019,04,02,13,31,17.70
2019,04,02,13,32,17.60
2019,04,02,13,33,17.70
2019,04,02,13,34,17.70
2019,04,02,13,35,17.80
2019,04,02,13,36,17.80
2019,04,02,13,37,17.80
2019,04,02,13,38,17.70
2019,04,02,13,39,17.70
2019,04,02,13,40,17.60
2019,04,02,13,41,17.60
2019,04,02,13,42,17.60
2019,04,02,13,43,17.60
2019,04,02,13,44,17.60
2019,04,02,13,45,17.70
2019,04,02,13,46,17.80
2019,04,02,13,47,17.90
2019,04,02,13,48,17.90
2019,04,02,13,49,17.90
2019,04,02,13,50,17.90
2019,04,02,13,51,17.80
2019,04,02,13,52,17.70
2019,04,02,13,53,17.70
2019,04,02,13,54,17.60
2019,04,02,13,55,17.60
2019,04,02,13,56,17.60
2019,04,02,13,57,17.60
2019,04,02,13,58,17.50
2019,04,02,13,59,17.50
2019,04,02,14,00,17.50
2019,04,02,14,01,17.60
2019,04,02,14,02,17.60
2019,04,02,14,03,17.70
2019,04,02,14,04,17.70
2019,04,02,14,05,17.70
2019,04,02,14,06,17.70
2019,04,02,14,07,17.70
2019,04,02,14,08,17.80
2019,04,02,14,09,17.80
2019,04,02,14,10,17.80
2019,04,02,14,11,17.90
2019,04,02,14,12,18.00
2019,04,02,14,13,18.00
2019,04,02,14,14,18.00
2019,04,02,14,15,18.10
2019,04,02,14,16,18.20
2019,04,02,14,17,18.20
2019,04,02,14,18,18.30
2019,04,02,14,19,18.30
2019,04,02,14,20,18.30
2019,04,02,14,21,18.30
2019,04,02,14,22,18.30
2019,04,02,14,23,18.30
2019,04,02,14,24,18.30
2019,04,02,14,25,18.20
2019,04,02,14,26,18.20
2019,04,02,14,27,18.20
2019,04,02,14,28,18.20
2019,04,02,14,29,18.20
2019,04,02,14,30,18.10
2019,04,02,14,31,18.00
2019,04,02,14,32,17.90
2019,04,02,14,33,17.90
2019,04,02,14,34,17.90
2019,04,02,14,35,17.90
2019,04,02,14,36,17.90
2019,04,02,14,37,17.90
2019,04,02,14,38,17.90
2019,04,02,14,39,17.80
2019,04,02,14,40,17.80
2019,04,02,14,41,17.80
2019,04,02,14,42,17.80
2019,04,02,14,43,17.80
2019,04,02,14,44,17.80
2019,04,02,14,45,17.80
2019,04,02,14,46,17.80
2019,04,02,14,47,17.80
2019,04,02,14,48,17.80
2019,04,02,14,49,17.90
2019,04,02,14,50,17.80
2019,04,02,14,51,17.80
2019,04,02,14,52,17.90
2019,04,02,14,53,17.90
2019,04,02,14,54,18.00
2019,04,02,14,55,18.00
2019,04,02,14,56,18.10
2019,04,02,14,57,18.10
2019,04,02,14,58,18.10
2019,04,02,14,59,18.10
2019,04,02,15,00,18.10
2019,04,02,15,01,18.10
2019,04,02,15,02,18.10
2019,04,02,15,03,18.20
2019,04,02,15,04,18.20
2019,04,02,15,05,18.20
2019,04,02,15,06,18.30
2019,04,02,15,07,18.30
2019,04,02,15,08,18.30
2019,04,02,15,09,18.30
2019,04,02,15,10,18.30
2019,04,02,15,11,18.30
2019,04,02,15,12,18.20
2019,04,02,15,13,18.20
2019,04,02,15,14,18.20
2019,04,02,15,15,18.20
2019,04,02,15,16,18.20
2019,04,02,15,17,18.20
2019,04,02,15,18,18.20
2019,04,02,15,19,18.20
2019,04,02,15,20,18.20
2019,04,02,15,21,18.20
2019,04,02,15,22,18.20
2019,04,02,15,23,18.20
2019,04,02,15,24,18.20
2019,04,02,15,25,18.20
2019,04,02,15,26,18.20
2019,04,02,15,27,18.20
2019,04,02,15,28,18.20
2019,04,02,15,29,18.20
2019,04,02,15,30,18.30
2019,04,02,15,31,18.30
2019,04,02,15,32,18.40
2019,04,02,15,33,18.40
2019,04,02,15,34,18.50
2019,04,02,15,35,18.50
2019,04,02,15,36,18.50
2019,04,02,15,37,18.50
2019,04,02,15,38,18.50
2019,04,02,15,39,18.50
2019,04,02,15,40,18.50
2019,04,02,15,41,18.50
2019,04,02,15,42,18.60
2019,04,02,15,43,18.60
2019,04,02,15,44,18.60
2019,04,02,15,45,18.60
2019,04,02,15,46,18.60
2019,04,02,15,47,18.60
2019,04,02,15,48,18.60
2019,04,02,15,49,18.60
2019,04,02,15,50,18.50
2019,04,02,15,51,18.50
2019,04,02,15,52,18.50
2019,04,02,15,53,18.50
2019,04,02,15,54,18.60
2019,04,02,15,55,18.60
2019,04,02,15,56,18.60
2019,04,02,15,57,18.60
2019,04,02,15,58,18.60
2019,04,02,15,59,18.60
2019,04,02,16,00,18.60
2019,04,02,16,01,18.50
2019,04,02,16,02,18.50
2019,04,02,16,03,18.50
2019,04,02,16,04,18.50
2019,04,02,16,05,18.50
2019,04,02,16,06,18.50
2019,04,02,16,07,18.50
2019,04,02,16,08,18.40
2019,04,02,16,09,18.40
2019,04,02,16,10,18.40
2019,04,02,16,11,18.40
2019,04,02,16,12,18.40
2019,04,02,16,13,18.40
2019,04,02,16,14,18.40
2019,04,02,16,15,18.40
2019,04,02,16,16,18.30
2019,04,02,16,17,18.20
2019,04,02,16,18,18.00
2019,04,02,16,19,17.70
2019,04,02,16,20,17.50
2019,04,02,16,21,17.40
2019,04,02,16,22,17.30
2019,04,02,16,23,17.20
2019,04,02,16,24,17.10
2019,04,02,16,25,17.00
2019,04,02,16,26,16.80
2019,04,02,16,27,16.70
2019,04,02,16,28,16.60
2019,04,02,16,29,16.40
2019,04,02,16,30,16.30
2019,04,02,16,31,16.20
2019,04,02,16,32,16.10
2019,04,02,16,33,16.00
2019,04,02,16,34,15.80
2019,04,02,16,35,15.60
2019,04,02,16,36,15.40
2019,04,02,16,37,15.30
2019,04,02,16,38,15.20
2019,04,02,16,39,15.20
2019,04,02,16,40,15.10
2019,04,02,16,41,15.20
2019,04,02,16,42,15.20
2019,04,02,16,43,15.20
2019,04,02,16,44,15.30
2019,04,02,16,45,15.30
2019,04,02,16,46,15.20
2019,04,02,16,47,15.20
2019,04,02,16,48,15.10
2019,04,02,16,49,15.00
2019,04,02,16,50,14.90
2019,04,02,16,51,14.90
2019,04,02,16,52,14.80
2019,04,02,16,53,14.80
2019,04,02,16,54,14.70
2019,04,02,16,55,14.80
2019,04,02,16,56,14.80
2019,04,02,16,57,14.80
2019,04,02,16,58,14.80
2019,04,02,16,59,14.80
2019,04,02,17,00,14.80
2019,04,02,17,01,14.80
2019,04,02,17,02,14.80
2019,04,02,17,03,14.80
2019,04,02,17,04,14.80
2019,04,02,17,05,14.80
2019,04,02,17,06,14.80
2019,04,02,17,07,14.80
2019,04,02,17,08,14.90
2019,04,02,17,09,14.90
2019,04,02,17,10,14.90
2019,04,02,17,11,14.90
2019,04,02,17,12,14.90
2019,04,02,17,13,14.90
2019,04,02,17,14,14.90
2019,04,02,17,15,15.00
2019,04,02,17,16,15.00
2019,04,02,17,17,15.10
2019,04,02,17,18,15.10
2019,04,02,17,19,15.10
2019,04,02,17,20,15.10
2019,04,02,17,21,15.20
2019,04,02,17,22,15.20
2019,04,02,17,23,15.20
2019,04,02,17,24,15.30
2019,04,02,17,25,15.30
2019,04,02,17,26,15.30
2019,04,02,17,27,15.30
2019,04,02,17,28,15.30
2019,04,02,17,29,15.30
2019,04,02,17,30,15.30
2019,04,02,17,31,15.30
2019,04,02,17,32,15.40
2019,04,02,17,33,15.40
2019,04,02,17,34,15.40
2019,04,02,17,35,15.40
2019,04,02,17,36,15.40
2019,04,02,17,37,15.40
2019,04,02,17,38,15.40
2019,04,02,17,39,15.40
2019,04,02,17,40,15.40
2019,04,02,17,41,15.40
2019,04,02,17,42,15.40
2019,04,02,17,43,15.40
2019,04,02,17,44,15.50
2019,04,02,17,45,15.50
2019,04,02,17,46,15.50
2019,04,02,17,47,15.50
2019,04,02,17,48,15.50
2019,04,02,17,49,15.50
2019,04,02,17,50,15.60
2019,04,02,17,51,15.60
2019,04,02,17,52,15.60
2019,04,02,17,53,15.60
2019,04,02,17,54,15.60
2019,04,02,17,55,15.60
2019,04,02,17,56,15.60
2019,04,02,17,57,15.60
2019,04,02,17,58,15.70
2019,04,02,17,59,15.70
2019,04,02,18,00,15.70
2019,04,02,18,01,15.70
2019,04,02,18,02,15.70
2019,04,02,18,03,15.70
2019,04,02,18,04,15.80
2019,04,02,18,05,15.80
2019,04,02,18,06,15.80
2019,04,02,18,07,15.80
2019,04,02,18,08,15.80
2019,04,02,18,09,15.80
2019,04,02,18,10,15.80
2019,04,02,18,11,15.80
2019,04,02,18,12,15.80
2019,04,02,18,13,15.80
2019,04,02,18,14,15.80
2019,04,02,18,15,15.80
2019,04,02,18,16,15.90
2019,04,02,18,17,15.90
2019,04,02,18,18,15.90
2019,04,02,18,19,15.90
2019,04,02,18,20,15.90
2019,04,02,18,21,15.90
2019,04,02,18,22,15.90
2019,04,02,18,23,15.90
2019,04,02,18,24,15.90
2019,04,02,18,25,15.90
2019,04,02,18,26,15.90
2019,04,02,18,27,15.90
2019,04,02,18,28,15.90
2019,04,02,18,29,15.90
2019,04,02,18,30,15.90
2019,04,02,18,31,15.90
2019,04,02,18,32,15.90
2019,04,02,18,33,15.90
2019,04,02,18,34,15.90
2019,04,02,18,35,15.90
2019,04,02,18,36,15.90
2019,04,02,18,37,15.80
2019,04,02,18,38,15.80
2019,04,02,18,39,15.80
2019,04,02,18,40,15.80
2019,04,02,18,41,15.80
2019,04,02,18,42,15.90
2019,04,02,18,43,15.90
2019,04,02,18,44,15.90
2019,04,02,18,45,15.90
2019,04,02,18,46,15.90
2019,04,02,18,47,15.90
2019,04,02,18,48,15.90
2019,04,02,18,49,15.90
2019,04,02,18,50,15.90
2019,04,02,18,51,15.90
2019,04,02,18,52,15.90
2019,04,02,18,53,16.00
2019,04,02,18,54,16.00
2019,04,02,18,55,16.00
2019,04,02,18,56,16.10
2019,04,02,18,57,16.10
2019,04,02,18,58,16.20
2019,04,02,18,59,16.20
2019,04,02,19,00,16.20
2019,04,02,19,01,16.20
2019,04,02,19,02,16.20
2019,04,02,19,03,16.20
2019,04,02,19,04,16.20
2019,04,02,19,05,16.20
2019,04,02,19,06,16.20
2019,04,02,19,07,16.20
2019,04,02,19,08,16.20
2019,04,02,19,09,16.20
2019,04,02,19,10,16.20
2019,04,02,19,11,16.20
2019,04,02,19,12,16.20
2019,04,02,19,13,16.20
2019,04,02,19,14,16.20
2019,04,02,19,15,16.20
2019,04,02,19,16,16.20
2019,04,02,19,17,16.30
2019,04,02,19,18,16.20
2019,04,02,19,19,16.20
2019,04,02,19,20,16.20
2019,04,02,19,21,16.20
2019,04,02,19,22,16.20
2019,04,02,19,23,16.20
2019,04,02,19,24,16.20
2019,04,02,19,25,16.20
2019,04,02,19,26,16.20
2019,04,02,19,27,16.10
2019,04,02,19,28,16.00
2019,04,02,19,29,15.80
2019,04,02,19,30,15.60
2019,04,02,19,31,15.50
2019,04,02,19,32,15.30
2019,04,02,19,33,15.20
2019,04,02,19,34,15.20